Hourly Data Report for August 14, 2001

SHERBROOKE A
QUEBEC

45°26'00.000" N
71°41'00.000" W
241.40 m
7028124
71610
YSC

Download Data

Hourly Data (August 2001)
Hourly Data Report for August 14, 2001
TIME
LST
Temp Definition
°C
Dew Point Definition
°C
Rel Hum Definition
%
Precip. Amount Definition
mm

Wind Dir Definition
10's deg

Wind Spd Definition
km/h
Visibility Definition
km
Stn Press Definition
kPa
Hmdx Definition


Wind Chill Definition


Weather Definition


00:00 13.4 12.7 96   15 4 15.0 98.73      
01:00 11.7 11.4 98     0 2.4 98.72      
02:00 9.9 9.2 95   10 4 15.0 98.71      
03:00 8.8 8.4 97     0 1.8 98.72      
04:00 8.8 8.7 99   8 4 0.2 98.74      
05:00 7.9 7.9 100     0 0.3 98.78      
06:00 10.9 10.5 97   7 4 9.7 98.81      
07:00 14.3 13.0 92     0 19.3 98.85     Mainly Clear
08:00 15.9 13.1 83   25 4 24.1 98.88     Mostly Cloudy
09:00 19.0 13.0 68   26 4 24.1 98.87     Mostly Cloudy
10:00 20.5 11.1 55   10 4 24.1 98.82     Mostly Cloudy
11:00 21.5 11.0 51   6 9 24.1 98.78     Mostly Cloudy
12:00 21.6 10.5 49   28 11 24.1 98.72     Mostly Cloudy
13:00 23.5 10.3 43   33 15 24.1 98.69 25   Mostly Cloudy
14:00 21.7 9.1 45   31 9 24.1 98.67     Mostly Cloudy
15:00 23.0 9.7 43   30 9 24.1 98.62     Mainly Clear
16:00 23.2 8.7 40   30 11 24.1 98.62     Mainly Clear
17:00 19.4 10.2 55   33 4 15.0 98.63      
18:00 20.9 11.9 56     0 15.0 98.65      
19:00 14.9 11.7 81   28 4 15.0 98.68      
20:00 12.3 10.1 86   10 4 15.0 98.76      
21:00 11.5 10.3 92   9 6 15.0 98.79      
22:00 10.6 9.6 94   11 6 15.0 98.78      
23:00 8.8 7.9 94     0 15.0 98.82      

Notes on Data Quality.

Legend

  • E = Estimated
  • M = Missing
  • NA = Not Available*
  • [empty] = Indicates an unobserved value
Date modified: